Terminal Aerodrome Forecast
Issued by NWS

Home | Current Version | Previous Version | Text Only | Print | Product List | Glossary On
Versions: 1 2 3 4 5 6 7 8 9 10 11 12 13 14
000
FTUS46 KMTR 031100
TAFOAK
TAF
KOAK 031120Z 0312/0418 28005KT P6SM OVC016
     FM031800 29007KT P6SM SCT015
     FM032000 29015KT P6SM FEW015
     FM040400 29010KT P6SM SCT015
     FM040600 29006KT P6SM OVC012=

USA.gov is the U.S. government's official web portal to all federal, state and local government web resources and services.